TimeAKST,TemperatureF,Dew PointF,Humidity,Sea Level PressureIn,VisibilityMPH,Wind Direction,Wind SpeedMPH,Gust SpeedMPH,PrecipitationIn,Events,Conditions,WindDirDegrees,DateUTC
12:53 AM,30.9,28.0,89,29.29,10.0,South,16.1,-,N/A,,Partly Cloudy,170,2012-12-13 09:53:00
1:53 AM,30.0,28.0,92,29.29,10.0,SSW,16.1,-,N/A,,Clear,200,2012-12-13 10:53:00
2:12 AM,30.2,28.4,93,29.29,10.0,South,18.4,-,N/A,,Partly Cloudy,190,2012-12-13 11:12:00
3:53 AM,30.9,30.0,96,29.29,10.0,SSW,19.6,-,N/A,,Clear,210,2012-12-13 12:53:00
4:53 AM,30.9,28.9,92,29.29,10.0,SSW,16.1,-,N/A,,Clear,200,2012-12-13 13:53:00
5:53 AM,32.0,30.0,92,29.28,10.0,SSW,16.1,-,N/A,,Clear,210,2012-12-13 14:53:00
6:53 AM,32.0,30.0,92,29.29,10.0,SW,24.2,31.1,N/A,,Clear,220,2012-12-13 15:53:00
7:53 AM,32.0,28.9,88,29.32,10.0,SSW,20.7,-,N/A,,Clear,200,2012-12-13 16:53:00
8:53 AM,32.0,28.0,85,29.34,10.0,SSW,19.6,-,N/A,,Clear,210,2012-12-13 17:53:00
9:53 AM,32.0,28.0,85,29.35,10.0,SSW,19.6,-,N/A,,Clear,210,2012-12-13 18:53:00
10:53 AM,32.0,28.0,85,29.36,10.0,South,18.4,-,N/A,,Clear,190,2012-12-13 19:53:00
11:53 AM,32.0,28.0,85,29.35,10.0,SSW,19.6,-,N/A,,Clear,210,2012-12-13 20:53:00
12:53 PM,32.0,28.0,85,29.35,10.0,SSW,17.3,-,N/A,,Clear,200,2012-12-13 21:53:00
2:53 PM,32.0,27.0,82,29.34,10.0,SSW,18.4,-,N/A,,Partly Cloudy,210,2012-12-13 23:53:00
3:53 PM,30.9,26.1,82,29.33,10.0,SSW,16.1,-,N/A,,Clear,200,2012-12-14 00:53:00
4:53 PM,32.0,27.0,82,29.32,10.0,SSW,21.9,-,N/A,,Partly Cloudy,210,2012-12-14 01:53:00
5:53 PM,32.0,28.0,85,29.32,10.0,SSW,19.6,-,N/A,,Mostly Cloudy,210,2012-12-14 02:53:00
6:53 PM,30.0,27.0,88,29.33,10.0,SSW,6.9,-,N/A,,Overcast,210,2012-12-14 03:53:00
7:53 PM,23.0,21.9,96,29.32,10.0,Calm,Calm,-,N/A,,Overcast,0,2012-12-14 04:53:00
8:53 PM,19.9,19.9,100,29.32,10.0,Calm,Calm,-,N/A,,Mostly Cloudy,0,2012-12-14 05:53:00
9:53 PM,18.0,17.1,96,29.31,10.0,NE,5.8,-,N/A,,Mostly Cloudy,40,2012-12-14 06:53:00
10:53 PM,18.0,16.0,92,29.31,5.0,ENE,4.6,-,N/A,,Clear,60,2012-12-14 07:53:00
11:19 PM,14.0,12.2,93,29.30,3.0,ENE,6.9,-,N/A,,Clear,60,2012-12-14 08:19:00
11:45 PM,14.0,12.2,93,29.30,5.0,NNE,4.6,-,N/A,,Scattered Clouds,30,2012-12-14 08:45:00
11:48 PM,12.2,12.2,100,29.29,2.0,NNE,3.5,-,N/A,,Mostly Cloudy,20,2012-12-14 08:48:00
11:51 PM,12.2,12.2,100,29.29,1.2,North,4.6,-,N/A,,Mostly Cloudy,360,2012-12-14 08:51:00
11:53 PM,12.9,12.0,96,29.31,0.8,North,4.6,-,N/A,,Mist,10,2012-12-14 08:53:00